GW5622 Weather Reports


time (UTC)temp
C
wind
direction
speed
KPH
gust
KPH
rain 1hr
cm
rain 24hr
cm
rain mn
cm
humidity
%
barometer
mb
20260505051004 2 285 11.3 27.4 0.00 0.03 0.00 62 1008.2
20260505050508 2 302 14.5 27.4 0.00 0.03 0.00 61 1008.2
20260505041531 3 286 16.1 29.0 0.00 0.03 0.03 57 1008.1
20260505041004 3 268 14.5 27.4 0.00 0.03 0.03 56 1008.0
20260505040505 3 300 17.7 27.4 0.00 0.03 0.03 56 1008.0
20260505040013 3 286 14.5 27.4 0.00 0.03 0.03 56 1008.0
20260505035506 3 315 11.3 27.4 0.00 0.03 0.03 55 1008.0
20260505035008 4 317 14.5 29.0 0.00 0.03 0.03 54 1007.9
20260505034516 4 306 11.3 32.2 0.00 0.03 0.03 54 1008.0
20260505034012 4 260 12.9 32.2 0.00 0.03 0.03 54 1007.9
20260505033515 4 287 9.7 22.5 0.00 0.03 0.03 53 1007.8
20260505033022 4 325 9.7 22.5 0.00 0.03 0.03 53 1007.8
20260505032508 4 306 12.9 22.5 0.00 0.03 0.03 1007.7
20260505032009 4 290 4.8 20.9 0.00 0.03 0.03 53 1007.7
20260505031524 4 306 11.3 20.9 0.00 0.03 0.03 53 1007.7
20260505031008 5 305 14.5 22.5 0.00 0.03 0.03 52 1007.7
20260505030512 -17 278 12.9 22.5 0.00 0.03 0.03 52 1007.6
20260505030028 -17 275 14.5 20.9 0.00 0.03 0.03 52 1007.6
20260505025503 5 263 11.3 25.7 0.00 0.03 0.03 51 1007.6
20260505025004 5 318 14.5 22.5 0.00 0.03 0.03 51 1007.6
20260505024534 5 291 11.3 22.5 0.00 0.03 0.03 51 1007.6
20260505024007 5 268 9.7 20.9 0.00 0.03 0.03 51 1007.6
20260505023507 5 261 8.0 20.9 0.00 0.03 0.03 51 1007.4
20260505023021 5 317 11.3 22.5 0.00 0.03 0.03 50 1007.3
20260505022510 5 293 9.7 22.5 0.00 0.03 0.03 49 1007.3
20260505022011 5 285 9.7 17.7 0.00 0.03 0.03 1007.3
20260505021522 5 298 8.0 22.5 0.00 0.03 0.03 48 1007.2
20260505021007 5 306 9.7 25.7 0.00 0.03 0.03 48 1007.2
20260505020507 5 310 12.9 29.0 0.00 0.03 0.03 48 1007.1
20260505020027 5 261 19.3 27.4 0.00 0.03 0.03 47 1007.1
20260505015511 5 273 17.7 25.7 0.00 0.03 0.03 47 1006.9
20260505015010 5 313 12.9 24.1 0.00 0.03 0.03 47 1006.9
20260505014512 5 296 8.0 25.7 0.00 0.03 0.03 47 1006.9
20260505014008 5 319 11.3 25.7 0.00 0.03 0.03 46 1006.7
20260505013508 5 226 12.9 24.1 0.00 0.03 0.03 46 1006.6
20260505013022 5 256 12.9 29.0 0.00 0.03 0.03 45 1006.5
20260505012507 5 302 16.1 29.0 0.00 0.03 0.03 45 1006.5
20260505012009 6 307 11.3 27.4 0.00 0.03 0.03 46 1006.5
20260505011522 6 317 16.1 30.6 0.00 0.03 0.03 47 1006.5
20260505011009 6 283 11.3 30.6 0.00 0.03 0.03 47 1006.5
20260505010508 6 275 11.3 29.0 0.00 0.03 0.03 47 1006.5
20260505010024 6 313 19.3 29.0 0.00 0.03 0.03 46 1006.4
20260505005507 6 263 9.7 25.7 0.00 0.03 0.03 47 1006.4
20260505005008 6 278 14.5 29.0 0.00 0.03 0.03 47 1006.2
20260505004530 6 248 12.9 29.0 0.00 0.03 0.03 47 1006.2
20260505004009 6 236 16.1 29.0 0.00 0.03 0.03 47 1006.1
20260505003516 6 270 16.1 29.0 0.00 0.03 0.03 46 1006.2
20260505003016 6 295 14.5 33.8 0.00 0.03 0.03 46 1006.2
20260505002508 6 272 17.7 33.8 0.00 0.03 0.03 46 1006.2
20260505002007 6 281 16.1 37.0 0.00 0.03 0.03 45 1006.1
20260505001521 6 290 14.5 37.0 0.00 0.03 0.03 45 1006.1
20260505001012 6 289 14.5 25.7 0.00 0.03 0.03 45 1006.0
20260505000508 6 321 11.3 32.2 0.00 0.03 0.03 45 1005.9
20260505000030 6 299 16.1 30.6 0.00 0.03 0.03 45 1005.9
20260504235510 6 299 14.5 37.0 0.00 0.03 0.03 44 1005.9
20260504235012 6 275 17.7 37.0 0.00 0.03 0.03 44 1005.9
20260504234526 6 295 19.3 37.0 0.00 0.03 0.03 44 1005.8
20260504234008 6 306 17.7 33.8 0.00 0.03 0.03 43 1005.8
20260504233509 6 298 16.1 29.0 0.00 0.03 0.03 43 1005.8
20260504233029 6 273 17.7 29.0 0.00 0.03 0.03 43 1005.7
20260504232511 6 253 14.5 29.0 0.00 0.03 0.03 43 1005.6
20260504232007 6 277 16.1 27.4 0.00 0.03 0.03 44 1005.7
20260504231525 6 304 12.9 33.8 0.00 0.03 0.03 44 1005.6
20260504231010 6 265 20.9 38.6 0.00 0.03 0.03 44 1005.6
20260504230508 6 279 14.5 30.6 0.00 0.03 0.03 45 1005.5
20260504230023 6 285 16.1 29.0 0.00 0.03 0.03 45 1005.5
20260504225511 6 323 12.9 30.6 0.00 0.03 0.03 45 1005.5
20260504225006 6 298 16.1 30.6 0.00 0.03 0.03 46 1005.5
20260504224528 6 272 9.7 33.8 0.00 0.03 0.03 46 1005.5
20260504224011 6 269 17.7 30.6 0.00 0.03 0.03 45 1005.3
20260504223507 6 259 17.7 27.4 0.00 0.03 0.03 46 1005.2
20260504223028 6 340 11.3 29.0 0.00 0.03 0.03 46 1005.1
20260504222507 6 275 14.5 29.0 0.00 0.03 0.03 47 1005.1
20260504222010 6 252 16.1 27.4 0.00 0.03 0.03 48 1005.3
20260504221528 6 302 11.3 30.6 0.00 0.03 0.03 48 1005.3
20260504221007 6 279 17.7 30.6 0.00 0.03 0.03 47 1005.3
20260504220508 6 306 9.7 37.0 0.00 0.03 0.03 47 1005.2
20260504220021 6 275 22.5 37.0 0.00 0.03 0.03 47 1005.2
20260504215507 6 305 20.9 37.0 0.00 0.03 0.03 47 1005.1
20260504215004 6 294 16.1 43.5 0.00 0.03 0.03 47 1005.1
20260504214506 6 250 24.1 43.5 0.00 0.03 0.03 47 1005.1
20260504214004 6 309 20.9 35.4 0.00 0.03 0.03 49 1005.2
20260504213505 6 281 11.3 33.8 0.00 0.03 0.03 52 1005.2
20260504213010 5 262 11.3 35.4 0.00 0.03 0.03 52 1005.2
20260504212506 5 309 16.1 37.0 0.00 0.03 0.03 52 1005.2
20260504212004 5 286 19.3 37.0 0.00 0.03 0.03 53 1005.2
20260504211513 -17 314 14.5 32.2 0.00 0.03 0.03 55 1005.2
20260504211007 5 341 19.3 32.2 0.00 0.03 0.03 55 1005.2
20260504210507 5 331 11.3 29.0 0.00 0.03 0.03 56 1005.0
20260504210017 5 337 12.9 35.4 0.00 0.03 0.03 57 1005.0
20260504205507 5 270 16.1 35.4 0.00 0.03 0.03 57 1005.0
20260504205010 5 304 16.1 37.0 0.00 0.03 0.03 57 1005.0
20260504204524 5 286 17.7 37.0 0.00 0.03 0.03 57 1004.9
20260504204003 5 286 17.7 38.6 0.00 0.03 0.03 57 1004.9
20260504203503 5 303 14.5 38.6 0.00 0.03 0.03 57 1004.8
20260504203018 5 311 16.1 33.8 0.00 0.03 0.03 57 1004.7
20260504202508 5 286 20.9 41.8 0.00 0.03 0.03 57 1004.7
20260504202006 5 265 20.9 41.8 0.00 0.03 0.03 57 1004.7
20260504201511 5 241 14.5 40.2 0.00 0.03 0.03 58 1004.6
20260504201006 5 271 16.1 35.4 0.00 0.03 0.03 58 1004.5
20260504200511 5 280 14.5 30.6 0.00 0.03 0.03 58 1004.5
20260504200016 6 286 17.7 37.0 0.00 0.03 0.03 58 1004.5
20260504195504 6 270 14.5 37.0 0.00 0.03 0.03 58 1004.4
20260504195007 6 308 16.1 33.8 0.00 0.03 0.03 58 1004.3
20260504194531 6 283 16.1 33.8 0.00 0.03 0.03 58 1004.3
20260504194010 6 291 16.1 33.8 0.00 0.03 0.03 57 1004.1
20260504193510 6 241 16.1 32.2 0.00 0.03 0.03 58 1004.1
20260504193014 6 283 16.1 35.4 0.00 0.03 0.03 57 1003.9
20260504192503 6 240 19.3 35.4 0.00 0.03 0.03 57 1003.9
20260504192004 6 304 14.5 33.8 0.00 0.03 0.03 57 1003.8
20260504191507 6 261 14.5 33.8 0.00 0.03 0.03 58 1003.7
20260504191006 6 248 11.3 35.4 0.00 0.03 0.03 58 1003.7
20260504190505 6 319 12.9 41.8 0.00 0.03 0.03 58 1003.6
20260504190012 6 307 20.9 41.8 0.00 0.03 0.03 57 1003.5
20260504185509 6 315 25.7 41.8 0.00 0.03 0.03 58 1003.5
20260504185005 6 271 20.9 38.6 0.00 0.03 0.03 58 1003.3
20260504184518 6 346 20.9 35.4 0.00 0.03 0.03 57 1003.3
20260504184008 6 311 16.1 40.2 0.00 0.03 0.03 57 1003.3
20260504183509 6 252 19.3 41.8 0.00 0.03 0.03 56 1003.1
20260504183022 6 269 17.7 41.8 0.00 0.03 0.03 58 1003.1
20260504182509 6 322 24.1 41.8 0.00 0.03 0.03 57 1002.9
20260504182011 6 273 22.5 40.2 0.00 0.03 0.03 56 1002.9
20260504181508 7 281 20.9 38.6 0.00 0.03 0.03 56 1002.7
20260504181004 7 294 22.5 32.2 0.00 0.03 0.03 54 1002.6
20260504180504 7 300 19.3 30.6 0.00 0.03 0.03 54 1002.5
20260504180015 7 243 16.1 33.8 0.00 0.03 0.03 54 1002.3
20260504175507 7 319 17.7 33.8 0.00 0.03 0.03 54 1002.4
20260504175005 8 344 16.1 30.6 0.00 0.03 0.03 54 1002.4
20260504174513 7 313 16.1 40.2 0.00 0.03 0.03 56 1002.3
20260504174007 7 290 19.3 40.2 0.00 0.03 0.03 57 1002.4
20260504173506 7 283 16.1 40.2 0.00 0.03 0.03 57 1002.3
20260504173021 6 300 24.1 38.6 0.00 0.03 0.03 57 1002.3
20260504172510 6 294 24.1 38.6 0.00 0.03 0.03 58 1002.3
20260504172009 6 255 14.5 40.2 0.00 0.03 0.03 59 1002.2
20260504171526 6 309 17.7 40.2 0.00 0.03 0.03 59 1002.1
20260504171014 6 317 17.7 40.2 0.00 0.03 0.03 58 1002.0
20260504170504 6 257 19.3 32.2 0.00 0.03 0.03 59 1002.1
20260504151009 6 270 19.3 38.6 0.00 0.03 0.03 69 1000.5
20260504150509 6 310 19.3 38.6 0.00 0.03 0.03 69 1000.2
20260504141010 6 305 19.3 37.0 0.00 0.03 0.03 67 999.4
20260504140507 6 360 19.3 32.2 0.00 0.03 0.03 67 999.3
20260504130508 7 288 19.3 30.6 0.00 0.03 0.03 72 998.2
20260504110505 8 265 11.3 20.9 0.03 0.03 0.03 79 996.6
20260504100509 10 308 12.9 27.4 0.00 0.00 0.00 64 996.7
20260504082003 16 234 6.4 16.1 0.00 0.00 0.00 37 994.5
20260504081505 16 242 6.4 16.1 0.00 0.00 0.00 36 994.5
20260504081003 16 234 8.0 16.1 0.00 0.00 0.00 36 994.5
20260504080504 16 244 8.0 24.1 0.00 0.00 0.00 36 994.4